Lid_Strength_Index
-0 -0 -0 -0 -0 -0 -0 -1 -1 -1 -1 -1 -2 -2 -2 -2 -1 2 5 2 -0 -3 -2 1 1 1 2 1 2 2 10 11 9 10 10 7 7 6 6 8 8 9 10 9 8
-0 -0 -0 -0 -0 -0 -0 -0 -1 -1 -1 -1 -1 -1 -2 -1 2 5 -1 -4 -4 -3 1 2 3 2 4 3 4 6 10 10 6 7 9 8 9 7 10 11 11 11 10 9 9
0 0 0 0 -0 -0 0 -0 -1 -1 -1 -1 -1 -1 -1 1 3 6 -3 -4 -5 -3 1 1 2 3 4 4 5 6 9 7 6 6 7 9 11 10 10 13 12 13 12 10 10
0 0 0 -0 -0 -0 0 0 -0 -0 -1 -1 -1 -1 -1 3 9 5 -3 -5 -4 -1 1 2 2 4 6 7 5 8 7 7 7 7 8 10 10 12 12 12 11 11 11 11 11
0 0 0 0 0 -0 0 0 0 -0 -0 -1 -1 -1 4 6 7 4 -3 -0 3 2 2 3 4 4 6 6 7 8 8 8 8 9 10 10 12 12 12 11 11 10 11 12 12
1 0 0 0 0 -0 -0 0 -0 -0 -0 -1 -1 0 5 8 4 4 4 4 4 3 3 3 4 3 6 6 7 8 8 9 8 8 10 12 12 12 12 11 11 11 12 12 12
1 0 0 1 1 0 0 0 0 0 0 -0 -1 4 7 8 4 4 4 4 4 4 4 4 3 3 4 7 6 8 10 9 9 10 11 11 14 14 12 11 13 13 12 11 11
1 1 1 1 1 1 1 1 1 1 0 -0 -0 4 8 4 4 4 4 3 3 4 4 4 3 5 5 5 7 9 8 12 11 9 10 11 17 14 12 13 13 12 13 11 11
1 1 1 1 1 1 1 0 0 -0 -1 0 4 4 8 3 6 5 4 6 4 4 4 4 4 7 7 9 11 10 13 12 12 10 10 12 16 14 12 13 13 13 13 12 11
1 2 2 2 2 1 1 0 1 1 3 4 5 7 7 8 6 6 5 5 5 5 5 5 7 10 11 12 15 14 13 12 13 11 12 15 16 14 13 13 14 14 13 12 10
2 2 2 2 1 2 3 4 5 6 7 9 8 8 8 6 5 7 6 5 5 5 9 9 12 14 12 11 11 11 12 13 13 11 13 15 15 15 13 14 14 13 13 11 10
2 2 2 2 2 3 3 5 5 5 9 7 8 8 7 6 9 8 6 7 8 11 8 11 14 12 10 11 12 11 13 14 12 11 13 15 16 14 13 14 13 13 12 11 10
2 2 2 3 2 3 4 5 2 3 7 8 8 9 8 7 10 10 8 8 9 11 12 14 13 10 11 12 14 12 15 15 16 13 13 14 17 15 13 13 12 12 11 10 10
3 3 3 3 4 2 4 3 2 2 8 10 9 9 8 7 11 8 8 9 9 11 11 12 12 12 12 14 14 14 13 14 14 15 18 14 20 16 15 14 12 12 11 11 11
3 3 4 3 3 4 3 2 2 3 14 9 9 6 7 10 9 9 8 8 12 12 10 15 14 15 15 15 13 14 13 14 13 15 16 15 19 19 15 16 14 12 11 11 10
3 3 3 3 2 3 2 2 3 9 14 10 9 10 9 9 10 8 9 8 9 11 12 13 12 14 14 13 12 12 14 13 13 15 19 17 18 20 18 16 14 12 11 11 11
4 3 3 3 4 2 2 4 9 12 9 11 10 10 10 11 10 10 12 14 15 15 14 14 15 13 13 14 12 14 16 19 20 20 20 15 18 19 16 13 12 12 12 11 11
3 4 3 4 2 2 3 6 11 10 10 9 10 10 12 11 11 11 11 14 14 15 15 16 16 16 14 15 17 16 17 21 23 23 21 15 20 18 14 12 10 10 11 11 11
5 3 3 4 3 3 5 10 11 10 9 10 10 10 11 10 11 11 14 14 15 15 17 18 17 14 14 14 15 17 20 17 20 18 21 19 18 15 13 12 11 12 12 12 11
5 3 4 3 3 4 6 10 10 9 9 9 11 11 11 12 11 11 13 14 14 13 14 16 18 15 14 13 14 16 16 20 20 25 25 21 21 21 17 15 13 13 13 12 11
4 4 4 3 4 5 9 10 10 10 9 10 11 11 11 11 11 13 14 14 13 14 13 15 16 16 14 18 19 18 19 18 19 20 25 24 22 16 16 14 13 13 13 12 12
4 6 4 3 6 6 9 9 10 10 9 10 10 11 11 11 12 13 14 14 12 12 15 15 17 19 19 16 15 17 19 19 22 23 21 22 22 14 13 12 12 13 12 12 12
5 5 3 4 10 10 10 11 10 11 11 11 12 11 10 12 13 12 13 12 12 13 16 14 17 20 20 18 16 18 18 18 19 20 22 26 22 13 13 12 12 13 12 12 12
4 7 6 5 6 9 10 11 13 11 12 11 12 11 11 12 11 13 14 13 12 13 13 14 16 19 21 20 19 20 19 18 19 24 24 22 21 17 15 14 12 12 12 13 13
4 7 8 9 8 8 9 10 13 13 11 10 12 11 11 15 13 13 13 14 13 13 14 16 18 18 18 17 17 18 18 18 23 20 25 21 20 17 16 14 13 12 12 13 13
5 7 7 8 8 9 10 11 12 13 12 12 12 12 12 13 13 14 13 14 15 14 16 15 18 18 19 17 18 19 18 18 18 18 19 18 19 15 14 13 12 12 13 13 13
5 5 5 10 9 8 10 11 11 12 13 11 12 13 14 14 14 14 14 14 15 15 16 17 18 19 21 19 19 21 18 19 19 18 18 21 19 15 15 13 12 13 13 13 13